Location: Saint-Usage
(47.1052°N, 5.2587°E)
Time: 12:27:32
(UTC+02:00)

ISS - Pass Details

Date: 20 September 2021
Orbit: 417 x 423 km, 51.6° (Epoch: 24 October)

Event Time Altitude Azimuth Distance (km) Brightness Sun altitude
Rises 20:46:32 0° 244° (WSW) 2,354 0.9 -11.9°
Reaches altitude 10° 20:48:37 10° 244° (WSW) 1,494 -0.2 -12.3°
Maximum altitude 20:51:59 89° 333° (NNW) 424 -3.8 -12.8°
Enters shadow 20:54:27 17° 65° (ENE) 1,133 -2.0 -13.2°
